Location: *
(49.7115°N, 15.0136°E)
Time: 09:32:14
(UTC+00:00)

STARLINK-1033 - Pass Details

Date: 27 February 2020
Orbit: 548 x 551 km, 53.0° (Epoch: 04 April)

Event Time Altitude Azimuth Distance (km) Brightness Sun altitude
Rises 18:08:56 0° 261° (W) 2,715 8.8 -15.4°
Reaches altitude 10° 18:11:11 10° 265° (W) 1,824 7.6 -15.8°
Maximum altitude 18:15:18 63° 347° (NNW) 619 3.9 -16.4°
Enters shadow 18:17:20 28° 60° (ENE) 1,049 4.6 -16.8°
